Flag for Germany Weather past 2 weeks in Mannheim, Baden-Württemberg, Germany

Now
57 °F

Passing clouds.


Feels Like: 54 °F
Forecast: 45 / 66 °F
Wind: 15 mph from Northeast

Location: Baden Wurttemberg - Neuostheim


UV Index: 3 (Moderate)

Visibility: N/A


Pressure: 29.92 "Hg

Humidity: 48%

Dew point: 37 °F

Location of MannheimLocation

Historic Weather in Mannheim

°F

Mannheim temperature yesterday

Maximum temperature yesterday: 55 °F (at 12:50 PM)
Minimum temperature yesterday: 46 °F (at 8:50 AM)
Average temperature yesterday: 51 °F

Past Weeks' High & Low Weather Summary

 TemperatureHumidityPressure
High75 °F (Apr 4, 4:20 PM)100% (Apr 5, 7:20 AM)30.42 "Hg (Apr 5, 7:20 AM)
Low34 °F (Apr 17, 6:50 AM)23% (Apr 17, 6:50 PM)29.68 "Hg (Apr 4, 1:50 PM)
Average56 °F55%30.09 "Hg
* Reported Apr 4 11:20 AM — Apr 19 11:50 AM, Mannheim, Weather by CustomWeather, © 2014

Note: Actual official high and low records may vary slightly from our data, if they occured in-between our weather recording intervals... More about our weather records

Advertising

Historic Weather Conditions — Data for Previous 24 hours

 ConditionsComfort  
Time TempWeatherWind HumidityBarometerVisibility
11:50 AM
Apr 19
52 °FPassing clouds.9 mph58%29.95 "HgN/A
11:20 AM50 °FScattered clouds.10 mph67%29.95 "HgN/A
10:50 AM46 °FPassing clouds.12 mph71%29.95 "HgN/A
10:20 AM46 °FSunny.10 mph71%29.98 "Hg10 mi
9:50 AM45 °FSunny.9 mph76%29.98 "Hg10 mi
9:20 AM43 °FPassing clouds.8 mph81%29.98 "HgN/A
8:50 AM43 °FPassing clouds.8 mph81%29.98 "HgN/A
8:20 AM43 °FSunny.6 mph81%29.98 "Hg10 mi
7:50 AM43 °FSunny.5 mph81%29.95 "Hg10 mi
7:20 AM41 °FClear.3 mph87%29.95 "Hg10 mi
7:50 PM
Apr 18
50 °FLight rain. Partly sunny.18 mph50%29.92 "HgN/A
7:20 PM54 °FSunny.2 mph47%29.89 "Hg10 mi
6:50 PM52 °FPassing clouds.5 mph50%29.89 "HgN/A
6:20 PM55 °FPartly sunny.1 mph47%29.89 "HgN/A
5:50 PM52 °FScattered showers. Broken clouds.3 mph50%29.89 "HgN/A
5:20 PM54 °FScattered showers. Clear.5 mph47%29.89 "HgN/A
4:50 PM52 °FScattered showers. Scattered clouds.3 mph50%29.89 "HgN/A
4:20 PM48 °FScattered showers. Broken clouds.5 mph62%29.89 "HgN/A
3:50 PM52 °FScattered showers. Scattered clouds.13 mph47%29.92 "HgN/A
3:20 PM52 °FSunny.14 mph47%29.89 "Hg10 mi
2:50 PM52 °FScattered showers. Broken clouds.15 mph47%29.89 "HgN/A
2:20 PM54 °FPassing clouds.10 mph41%29.89 "HgN/A
1:50 PM54 °FPassing clouds.14 mph41%29.89 "HgN/A
1:20 PM55 °FPassing clouds.12 mph41%29.89 "HgN/A
Weather by CustomWeather, © 2014

See weather overview